Regional Weather Roundup
Issued by NWS

Home | Current Version | Previous Version | Text Only | Print | Product List | Glossary Off
Versions: 1 2 3 4 5 6 7 8 9 10 11 12 13 14 15 16 17 18 19 20 21 22 23 24 25 26 27 28 29 30 31 32 33 34 35 36 37 38 39 40 41 42 43 44 45 46 47 48 49 50

000
ASUS43 KLSX 241057
RWRMO

WEATHER SUMMARY FOR MISSOURI
NATIONAL WEATHER SERVICE SPRINGFIELD MO
500 AM CST TUE JAN 24 2017

NOTE: "FAIR" INDICATES FEW OR NO CLOUDS BELOW 12,000 FEET WITH NO
       SIGNIFICANT WEATHER AND/OR OBSTRUCTIONS TO VISIBILITY.
       CURRENT SKY AND/OR WEATHER CONDITIONS ARE NOT AVAILABLE FOR
       CHILLICOTHE AND FARMINGTON.

MOZ001>031-035>038-043-044-053-054-241200-
...NORTHERN AND WESTERN MISSOURI...

CITY           SKY/WX    TMP DP  RH WIND       PRES   REMARKS
KANSAS CTY INT CLOUDY    31  27  85 E17       29.75F WCI  19
LEE`S SUMMIT   PTCLDY    30  32 100 E12       29.78S WCI  20
ST JOSEPH      CLOUDY    31  30  96 E12       29.78S WCI  22
CHILLICOTHE      N/A     32  30  92 VRB7      29.86F WCI  26

$$
MOZ066>068-077>081-088>096-101>105-241200-
...SOUTHWEST MISSOURI...

CITY           SKY/WX    TMP DP  RH WIND       PRES   REMARKS
SPRINGFIELD    CLEAR     38  32  79 SE14      29.76F WCI  30
JOPLIN         CLEAR     41  34  76 E10       29.70F

$$
MOZ032>034-039>042-045>050-055>058-069>072-241200-
...CENTRAL MISSOURI...

CITY           SKY/WX    TMP DP  RH WIND       PRES   REMARKS
COLUMBIA       NOT AVBL
JEFFERSON CITY PTCLDY    26  25  96 SE5       29.88S FOG     WCI  20
ROLLA          CLEAR     30  30 100 E10       29.84S FOG     WCI  21
SEDALIA        MOCLDY    30  29  96 E10       29.84S FOG     WCI  21
WHITEMAN AFB   CLEAR     30  30 100 E10       29.80F WCI  21
WARRENSBURG    CLEAR     30  28  93 E8        29.81F WCI  23

$$
MOZ051-052-059>065-241200-
...EAST CENTRAL MISSOURI...

CITY           SKY/WX    TMP DP  RH WIND       PRES   REMARKS
ST LOUIS INTL  MOCLDY    39  31  72 N3        29.90S

$$
MOZ072>076-082>087-097>100-106>115-241200-
...SOUTH CENTRAL AND SOUTHEAST MISSOURI...

CITY           SKY/WX    TMP DP  RH WIND       PRES   REMARKS
CAPE GIRARDEAU CLEAR     30  29  96 SW3       29.91S FOG
POPLAR BLUFF   CLEAR     30  29  96 CALM      29.90F
WEST PLAINS    CLEAR     29  27  92 E3        29.86S

$$


USA.gov is the U.S. government's official web portal to all federal, state and local government web resources and services.